Location: Chiroubles
(46.1812°N, 4.6660°E)
Time: 16:01:17
(UTC+00:00)

Transit 2A Rocket - Visible Passes

Search period start: 24 November 2020 00:00
Search period end: 04 December 2020 00:00
Orbit: 588 x 915 km, 66.7° (Epoch: 24 November)

Date Brightness Start Highest point End Pass type
(mag) Time Alt. Az. Time Alt. Az. Time Alt. Az.
24 Nov 6.8 03:45:59 24° NNE 03:45:59 24° NNE 03:48:14 10° NNE visible
24 Nov 6.8 05:25:55 15° NW 05:26:35 15° NNW 05:29:46 10° N visible
25 Nov 7.6 03:04:54 15° NNE 03:04:54 15° NNE 03:05:43 10° NNE visible
25 Nov 6.8 04:44:50 19° NNW 04:44:50 19° NNW 04:47:34 10° NNE visible
26 Nov 7.1 04:03:39 17° N 04:03:39 17° N 04:05:17 10° NNE visible
27 Nov 7.6 03:22:26 12° NNE 03:22:26 12° NNE 03:22:54 10° NNE visible
27 Nov 7.1 05:02:21 13° NNW 05:02:21 13° NNW 05:04:08 10° N visible
28 Nov 7.3 04:21:05 13° N 04:21:05 13° N 04:22:04 10° N visible
29 Nov 7.7 03:39:48 10° NNE 03:39:48 10° NNE 03:39:50 10° NNE visible
